Houlton, ME

12:29 AM EST on December 12, 2017 (GMT -0500)
Houlton International

Weather History for KHUL - February, 2012

Change the Weather History Date:

Sunday, February 19, 2012

  Actual Average Record
Temperature  
Mean Temperature 22 °F 16 °F  
Max Temperature 32 °F 28 °F 55 °F (1981)
Min Temperature 12 °F 5 °F -33 °F (1967)
Degree Days  
Heating Degree Days 43 49  
Month to date heating degree days 937 974  
Since 1 July heating degree days 5364 6149  
Cooling Degree Days 0 0  
Month to date cooling degree days 0 0  
Year to date cooling degree days 0 0  
Moisture  
Dew Point 11 °F    
Average Humidity 55    
Maximum Humidity 74    
Minimum Humidity 36    
Precipitation  
Precipitation 0.00 in 0.07 in 1.14 in (1998)
Month to date precipitation 0.46 1.35  
Year to date precipitation 2.42 4.21  
Sea Level Pressure  
Sea Level Pressure 29.86 in    
Wind  
Wind Speed 8 mph (NW)    
Max Wind Speed 20 mph    
Max Gust Speed 28 mph    
Visibility 10 miles    
Events      
T = Trace of Precipitation, MM = Missing Value Source: NWS Daily Summary

Daily Weather History Graph

Daily Weather History Graph

Search for Another Location

Airport or City:

Trip Planner

Search our weather history database for the weather conditions in past years. The results will help you decide how hot, cold, wet, or windy it might be!

Date:

Astronomy

Feb. 19, 2012 Rise Set
Actual Time 6:28 AM EST 5:02 PM EST
Civil Twilight 5:57 AM EST 5:32 PM EST
Nautical Twilight 5:22 AM EST 6:07 PM EST
Astronomical Twilight 4:48 AM EST 6:42 PM EST
Moon 4:52 AM EST (2/19) 2:55 PM EST (2/19)
Length of Visible Light 11h 35m
Length of Day
10h 33m
Waning Crescent, 5% of the Moon is Illuminated
Feb 19
Waning Crescent
Feb 21
New
Feb 29
First Quarter
Mar 8
Full
Mar 14
Last Quarter

Hourly Weather History & Observations

Time (EST) Temp. Windchill Dew Point Humidity Pressure Visibility Wind Dir Wind Speed Gust Speed Precip Events Conditions
12:09 AM 28.4 °F 17.0 °F 17.6 °F 64% 29.75 in 10.0 mi NNW 15.0 mph 19.6 mph N/A   Overcast
12:53 AM 26.1 °F 15.0 °F 18.0 °F 71% 29.78 in 10.0 mi NNE 12.7 mph - N/A   Overcast
1:53 AM 25.0 °F 18.1 °F 17.1 °F 72% 29.80 in 10.0 mi North 5.8 mph - N/A   Overcast
2:10 AM 24.8 °F 16.9 °F 17.6 °F 74% 29.79 in 10.0 mi North 6.9 mph - N/A   Overcast
2:53 AM 25.0 °F 13.1 °F 14.0 °F 63% 29.82 in 10.0 mi NNW 13.8 mph 20.7 mph N/A   Overcast
3:37 AM 24.8 °F 16.1 °F 14.0 °F 64% 29.81 in 10.0 mi NNW 8.1 mph 16.1 mph N/A   Overcast
3:49 AM 24.8 °F 15.3 °F 14.0 °F 64% 29.81 in 10.0 mi NNW 9.2 mph - N/A   Overcast
3:53 AM 24.1 °F 14.4 °F 12.9 °F 62% 29.83 in 10.0 mi NNW 9.2 mph - N/A   Overcast
4:53 AM 23.0 °F 15.8 °F 12.9 °F 65% 29.83 in 10.0 mi NNW 5.8 mph - N/A   Overcast
5:53 AM 21.9 °F 10.4 °F 10.9 °F 63% 29.84 in 10.0 mi WNW 11.5 mph 20.7 mph N/A   Overcast
6:29 AM 19.4 °F 7.9 °F 10.4 °F 68% 29.84 in 10.0 mi WNW 10.4 mph 17.3 mph N/A   Scattered Clouds
6:53 AM 19.9 °F 12.1 °F 10.0 °F 65% 29.87 in 10.0 mi WNW 5.8 mph - N/A   Clear
7:53 AM 19.9 °F 10.1 °F 10.0 °F 65% 29.89 in 10.0 mi West 8.1 mph 17.3 mph N/A   Clear
8:34 AM 21.2 °F 11.7 °F 10.4 °F 63% 29.87 in 10.0 mi WNW 8.1 mph - N/A   Mostly Cloudy
8:53 AM 21.9 °F 11.7 °F 10.0 °F 60% 29.89 in 10.0 mi WNW 9.2 mph - N/A   Mostly Cloudy
9:53 AM 24.1 °F 13.7 °F 9.0 °F 53% 29.88 in 10.0 mi NW 10.4 mph - N/A   Scattered Clouds
10:53 AM 26.1 °F 15.6 °F 9.0 °F 49% 29.88 in 10.0 mi NW 11.5 mph - N/A   Clear
11:53 AM 28.0 °F 18.1 °F 10.0 °F 47% 29.86 in 10.0 mi WNW 11.5 mph 19.6 mph N/A   Clear
12:53 PM 30.0 °F 20.0 °F 10.0 °F 43% 29.86 in 10.0 mi NNW 12.7 mph 20.7 mph N/A   Scattered Clouds
1:53 PM 30.9 °F 21.2 °F 10.0 °F 42% 29.86 in 10.0 mi NW 12.7 mph 24.2 mph N/A   Partly Cloudy
2:53 PM 30.9 °F 20.7 °F 8.1 °F 38% 29.86 in 10.0 mi NW 13.8 mph - N/A   Clear
3:53 PM 30.2 °F 20.8 °F 6.8 °F 37% 29.84 in 10.0 mi NW 11.5 mph 21.9 mph N/A   Clear
4:53 PM 28.9 °F 21.9 °F 6.1 °F 38% 29.88 in 10.0 mi NW 6.9 mph - N/A   Clear
5:53 PM 27.0 °F 23.0 °F 6.1 °F 41% 29.90 in 10.0 mi WNW 3.5 mph - N/A   Clear
6:53 PM 25.0 °F 18.1 °F 7.0 °F 46% 29.91 in 10.0 mi WNW 5.8 mph - N/A   Clear
7:53 PM 24.1 °F 17.0 °F 7.0 °F 48% 29.92 in 10.0 mi NW 5.8 mph - N/A   Clear
8:53 PM 21.9 °F 13.4 °F 7.0 °F 53% 29.93 in 10.0 mi WNW 6.9 mph - N/A   Clear
9:53 PM 19.9 °F 12.1 °F 7.0 °F 57% 29.94 in 10.0 mi West 5.8 mph - N/A   Clear
10:53 PM 18.0 °F 8.7 °F 7.0 °F 62% 29.95 in 10.0 mi WNW 6.9 mph - N/A   Clear
11:53 PM 16.0 °F - 6.1 °F 65% 29.96 in 10.0 mi Calm Calm - N/A   Clear